Weather History for Winnemucca, NV

Change the Weather History Date:

Monday, November 19, 2012

  Actual Average Record
Temperature  
Mean Temperature 45 °F 36 °F  
Max Temperature 58 °F 49 °F 68 °F (1996)
Min Temperature 31 °F 22 °F -3 °F (1964)
Degree Days  
Heating Degree Days 20 29  
Month to date heating degree days 455 497  
Since 1 July heating degree days 994 1222  
Moisture  
Dew Point 30 °F    
Average Humidity 60    
Maximum Humidity 89    
Minimum Humidity 30    
Precipitation  
Precipitation 0.00 in 0.03 in 0.44 in (1898)
Month to date precipitation 0.09 0.54  
Year to date precipitation 4.03 7.01  
Snow  
Snow 0.00 in 0.20 in 3.00 in (1898)
Month to date snowfall T 1.5  
Since 1 July snowfall 1.3 2.0  
Since 1 September snowfall 1.3 2.0  
Snow Depth 0.00 in    
Sea Level Pressure  
Sea Level Pressure 30.12 in    
Wind  
Wind Speed 7 mph (SSW)    
Max Wind Speed 18 mph    
Max Gust Speed 26 mph    
Visibility 10 miles    
Events      
T = Trace of Precipitation, MM = Missing Value Source: NWS Daily Summary

Daily Weather History Graph

Daily Weather History Graph

Search for Another Location

Airport:

Trip Planner

Search our weather history database for the weather conditions in past years. The results will help you decide how hot, cold, wet, or windy it might be!

Date:

Astronomy

Nov. 19, 2012 Rise Set
Actual Time 6:43 AM PST 4:29 PM PST
Civil Twilight 6:14 AM PST 4:59 PM PST
Nautical Twilight 5:40 AM PST 5:32 PM PST
Astronomical Twilight 5:07 AM PST 6:05 PM PST
Moon 11:48 AM PST (11/19) 11:02 PM PST (11/19)
Length of Visible Light 10h 45m
Length of Day
9h 45m
Waxing Crescent, 42% of the Moon is Illuminated
Nov 19
Waxing Crescent
Nov 20
First Quarter
Nov 28
Full
Dec 6
Last Quarter
Dec 13
New

Hourly Weather History & Observations

Time (PST) Temp. Windchill Dew Point Humidity Pressure Visibility Wind Dir Wind Speed Gust Speed Precip Events Conditions
12:56 AM 37.9 °F 34.4 °F 33.1 °F 83% 30.10 in 10.0 mi West 4.6 mph - N/A   Overcast
1:56 AM 37.0 °F - 30.9 °F 79% 30.11 in 10.0 mi Calm Calm - N/A   Overcast
2:56 AM 35.1 °F - 30.9 °F 85% 30.12 in 10.0 mi Calm Calm - N/A   Scattered Clouds
3:56 AM 34.0 °F 28.8 °F 30.0 °F 85% 30.12 in 10.0 mi SW 5.8 mph - N/A   Mostly Cloudy
4:56 AM 32.0 °F - 28.9 °F 88% 30.15 in 10.0 mi Calm Calm - N/A   Partly Cloudy
5:56 AM 35.1 °F - 30.9 °F 85% 30.16 in 10.0 mi Calm Calm - N/A   Mostly Cloudy
6:56 AM 34.0 °F 31.0 °F 30.9 °F 89% 30.19 in 10.0 mi NW 3.5 mph - N/A   Overcast
7:56 AM 37.9 °F - 33.1 °F 83% 30.18 in 10.0 mi Calm Calm - N/A   Overcast
8:56 AM 46.9 °F - 33.1 °F 59% 30.17 in 10.0 mi South 9.2 mph - N/A   Overcast
9:56 AM 48.9 °F - 33.1 °F 54% 30.17 in 10.0 mi South 9.2 mph - N/A   Clear
10:56 AM 53.1 °F - 32.0 °F 45% 30.15 in 10.0 mi South 11.5 mph - N/A   Partly Cloudy
11:56 AM 55.0 °F - 30.9 °F 40% 30.12 in 10.0 mi South 8.1 mph - N/A   Clear
12:56 PM 55.0 °F - 28.0 °F 35% 30.11 in 10.0 mi South 9.2 mph - N/A   Overcast
1:56 PM 57.9 °F - 27.0 °F 31% 30.10 in 10.0 mi South 8.1 mph 19.6 mph N/A   Clear
2:56 PM 55.0 °F - 28.0 °F 35% 30.11 in 10.0 mi South 11.5 mph - N/A   Scattered Clouds
3:56 PM 52.0 °F - 30.0 °F 43% 30.12 in 10.0 mi SSW 4.6 mph - N/A   Clear
4:56 PM 48.9 °F - 28.9 °F 46% 30.13 in 10.0 mi South 6.9 mph - N/A   Overcast
5:56 PM 48.0 °F - 30.0 °F 50% 30.13 in 10.0 mi SSW 8.1 mph - N/A   Partly Cloudy
6:56 PM 48.0 °F - 30.0 °F 50% 30.12 in 10.0 mi SW 6.9 mph - N/A   Scattered Clouds
7:56 PM 50.0 °F - 28.9 °F 44% 30.10 in 10.0 mi South 11.5 mph 18.4 mph N/A   Partly Cloudy
8:56 PM 50.0 °F - 28.9 °F 44% 30.06 in 10.0 mi South 15.0 mph - N/A   Partly Cloudy
9:56 PM 48.9 °F - 28.9 °F 46% 30.07 in 10.0 mi South 12.7 mph - N/A   Clear
10:56 PM 50.0 °F - 28.9 °F 44% 30.05 in 10.0 mi South 11.5 mph - N/A   Clear
11:56 PM 48.9 °F - 30.0 °F 48% 30.04 in 10.0 mi South 15.0 mph - N/A   Clear